Location: Unspecified
(44.9196°N, 0.0000°E)
Time: 18:31:24
(UTC+00:00)

OTV 5 (USA 277) - Visible Passes

Search period start: 16 June 2019 00:00
Search period end: 26 June 2019 00:00
Orbit: 310 x 325 km, 54.5° (Epoch: 08 May)

Date Brightness Start Highest point End Pass type
(mag) Time Alt. Az. Time Alt. Az. Time Alt. Az.
16 Jun ? 01:12:16 18° NW 01:13:20 22° NNW 01:15:36 10° NNE visible
16 Jun ? 02:47:21 10° NNW 02:48:28 12° N 02:49:33 10° NNE visible
16 Jun ? 23:54:57 25° NE 23:54:57 25° NE 23:56:19 10° NE visible
17 Jun ? 01:26:36 10° NW 01:28:21 15° NNW 01:30:06 10° NNE visible
17 Jun ? 03:02:21 10° NNW 03:03:35 12° N 03:04:49 10° NNE visible
18 Jun ? 00:08:19 28° NNW 00:08:25 28° NNW 00:10:54 10° NE visible
18 Jun ? 01:42:11 10° NNW 01:43:27 12° N 01:44:42 10° NNE visible
18 Jun ? 03:16:57 10° NNW 03:18:40 15° NNE 03:20:23 10° NE visible
18 Jun ? 22:50:36 19° NE 22:50:36 19° NE 22:51:30 10° NE visible
19 Jun ? 00:21:25 10° WNW 00:23:23 18° NNW 00:25:24 10° NNE visible
19 Jun ? 01:57:28 10° NNW 01:58:34 12° N 01:59:41 10° NNE visible
19 Jun ? 03:31:26 10° NNW 03:33:42 22° NNE 03:35:56 10° ENE visible
19 Jun ? 23:03:08 37° NW 23:03:32 40° NNW 23:06:10 10° NE visible
20 Jun ? 00:36:58 10° NW 00:38:27 13° N 00:39:55 10° NNE visible
20 Jun ? 02:12:13 10° NNW 02:13:41 13° N 02:15:09 10° NE visible
20 Jun ? 21:42:46 27° SSW 21:43:56 49° SE 21:46:38 10° ENE visible
20 Jun ? 23:16:10 10° WNW 23:18:26 22° NNW 23:20:42 10° NNE visible
21 Jun ? 00:52:27 10° NNW 00:53:33 12° N 00:54:41 10° NNE visible
21 Jun ? 02:26:45 10° NNW 02:28:45 18° NNE 02:30:44 10° ENE visible
21 Jun ? 21:55:55 10° WSW 21:58:40 60° NNW 22:01:24 10° NE visible
21 Jun ? 23:31:43 10° NW 23:33:27 15° NNW 23:35:12 10° NNE visible
22 Jun ? 01:07:26 10° NNW 01:08:40 12° N 01:09:56 10° NNE visible
22 Jun ? 02:41:14 10° NW 02:43:43 28° NNE 02:46:10 10° E visible
22 Jun ? 20:36:43 10° SSW 20:39:11 30° SE 20:41:40 10° ENE visible
22 Jun ? 22:11:02 10° W 22:13:31 28° NNW 22:16:00 10° NE visible
22 Jun ? 23:47:18 10° NNW 23:48:33 12° N 23:49:48 10° NNE visible
23 Jun ? 01:22:02 10° NNW 01:23:46 15° NNE 01:25:31 10° NE visible
23 Jun ? 02:55:50 10° NW 02:58:34 61° NNE 03:01:16 10° ESE visible
23 Jun ? 20:51:05 10° SW 20:53:50 84° SE 20:56:37 10° NE visible
23 Jun ? 22:26:28 10° WNW 22:28:29 18° NNW 22:30:30 10° NNE visible
24 Jun ? 00:02:33 10° NNW 00:03:40 12° N 00:04:48 10° NNE visible
24 Jun ? 01:36:32 10° NNW 01:38:48 22° NNE 01:41:03 10° ENE visible
24 Jun ? 03:10:36 10° WNW 03:13:17 49° SW 03:15:56 10° SE visible
24 Jun ? 21:05:59 10° WSW 21:08:37 39° NNW 21:11:16 10° NE visible
24 Jun ? 22:42:04 10° NW 22:43:32 13° N 22:45:02 10° NNE visible
25 Jun ? 00:17:18 10° NNW 00:18:47 13° N 00:20:16 10° NE visible
25 Jun ? 01:51:03 10° NW 01:53:42 40° NNE 01:56:20 10° ESE visible
25 Jun ? 03:25:49 10° W 03:27:51 19° SW 03:29:53 10° S visible
25 Jun ? 21:21:17 10° WNW 21:23:32 22° NNW 21:25:48 10° NNE visible
25 Jun ? 22:57:32 10° NNW 22:58:39 12° N 22:59:47 10° NNE visible
